Frederick, MD

2:01 PM EDT on October 19, 2019 (GMT -0400)
Frederick Municipal

Weather History for KFDK - August, 2019

Change the Weather History Date:

Monday, August 5, 2019

  Actual Average (KHGR) Record (KHGR)
Temperature  
Mean Temperature 76 °F -  
Max Temperature 87 °F 82 °F 92 °F (2005)
Min Temperature 66 °F 63 °F 57 °F (1997)
Cooling Degree Days 12    
Growing Degree Days 26 (Base 50)    
Moisture  
Dew Point 66 °F    
Average Humidity 78    
Maximum Humidity 94    
Minimum Humidity 46    
Precipitation  
Precipitation 0.00 in - - ()
Sea Level Pressure  
Sea Level Pressure 29.99 in    
Wind  
Wind Speed 2 mph (ENE)    
Max Wind Speed 7 mph    
Max Gust Speed -    
Visibility 10 miles    
Events      
Averages and records for this station are not official NWS values.
T = Trace of Precipitation, MM = Missing Value Source: NWS Daily Summary

Daily Weather History Graph

Daily Weather History Graph

Search for Another Location

Airport or City:

Astronomy

Aug. 05, 2019 Rise Set
Actual Time 6:12 AM EDT 8:17 PM EDT
Civil Twilight 5:43 AM EDT 8:47 PM EDT
Nautical Twilight 5:06 AM EDT 9:23 PM EDT
Astronomical Twilight 4:27 AM EDT 10:02 PM EDT
Moon 11:25 AM EDT (8/5) 11:30 PM EDT (8/5)
Length of Visible Light 15h 04m
Length of Day
14h 05m
Waxing Crescent, 28% of the Moon is Illuminated
Aug 5
Waxing Crescent
Aug 7
First Quarter
Aug 15
Full
Aug 23
Last Quarter
Aug 30
New

Hourly Weather History & Observations

Time (EDT) Temp. Heat Index Dew Point Humidity Pressure Visibility Wind Dir Wind Speed Gust Speed Precip Events Conditions
12:05 AM 69.8 °F - 68.0 °F 94% 29.98 in 10.0 mi Calm Calm - N/A   Clear
12:25 AM 69.8 °F - 68.0 °F 94% 29.98 in 10.0 mi Calm Calm - N/A   Clear
12:45 AM 69.8 °F - 68.0 °F 94% 29.99 in 10.0 mi Calm Calm - N/A   Clear
1:05 AM 69.8 °F - 68.0 °F 94% 29.99 in 10.0 mi East 3.5 mph - N/A   Clear
1:25 AM 69.8 °F - 68.0 °F 94% 29.98 in 10.0 mi SE 3.5 mph - N/A   Clear
1:45 AM 69.8 °F - 68.0 °F 94% 29.99 in 10.0 mi Calm Calm - N/A   Clear
2:05 AM 68.0 °F - 66.2 °F 94% 29.99 in 10.0 mi North 3.5 mph - N/A   Clear
2:25 AM 68.0 °F - 66.2 °F 94% 29.99 in 10.0 mi Calm Calm - N/A   Clear
2:45 AM 68.0 °F - 64.4 °F 88% 29.99 in 10.0 mi NE 3.5 mph - N/A   Clear
3:05 AM 68.0 °F - 66.2 °F 94% 29.99 in 10.0 mi Calm Calm - N/A   Clear
3:25 AM 68.0 °F - 66.2 °F 94% 29.98 in 10.0 mi Calm Calm - N/A   Clear
3:45 AM 68.0 °F - 64.4 °F 88% 29.99 in 10.0 mi Calm Calm - N/A   Clear
4:05 AM 68.0 °F - 64.4 °F 88% 29.99 in 10.0 mi Calm Calm - N/A   Clear
4:25 AM 68.0 °F - 64.4 °F 88% 29.99 in 7.0 mi Calm Calm - N/A   Clear
4:45 AM 68.0 °F - 64.4 °F 88% 29.99 in 10.0 mi Calm Calm - N/A   Clear
5:05 AM 68.0 °F - 64.4 °F 88% 29.99 in 10.0 mi Calm Calm - N/A   Clear
5:25 AM 68.0 °F - 64.4 °F 88% 29.99 in 10.0 mi Calm Calm - N/A   Clear
5:45 AM 66.2 °F - 64.4 °F 94% 30.00 in 10.0 mi Calm Calm - N/A   Clear
6:05 AM 68.0 °F - 64.4 °F 88% 30.01 in 10.0 mi Calm Calm - N/A   Clear
6:25 AM 68.0 °F - 64.4 °F 88% 30.01 in 10.0 mi NNE 3.5 mph - N/A   Clear
6:45 AM 69.8 °F - 64.4 °F 83% 30.01 in 10.0 mi North 5.8 mph - N/A   Clear
6:47 AM 69.8 °F - 66.2 °F 88% 30.02 in 10.0 mi North 4.6 mph - N/A   Clear
7:05 AM 68.0 °F - 64.4 °F 88% 30.02 in 10.0 mi Calm Calm - N/A   Clear
7:47 AM 71.6 °F - 66.2 °F 83% 30.03 in 10.0 mi NE 5.8 mph - N/A   Overcast
8:51 AM 73.4 °F - 68.0 °F 83% 30.04 in 10.0 mi NE 5.8 mph - N/A   Overcast
9:50 AM 78.8 °F - 66.2 °F 65% 30.04 in 10.0 mi NNE 6.9 mph - N/A   Overcast
10:47 AM 80.6 °F 82.7 °F 66.2 °F 61% 30.04 in 10.0 mi NNE 5.8 mph - N/A   Overcast
11:47 AM 80.6 °F 82.3 °F 64.4 °F 58% 30.03 in 10.0 mi NE 6.9 mph - N/A   Clear
12:47 PM 84.2 °F 86.6 °F 66.2 °F 55% 30.02 in 10.0 mi NNE 4.6 mph - N/A   Clear
1:47 PM 86.0 °F 87.3 °F 64.4 °F 48% 30.00 in 10.0 mi North 3.5 mph - N/A   Clear
2:47 PM 87.8 °F 89.4 °F 64.4 °F 46% 29.98 in 10.0 mi North 3.5 mph - N/A   Clear
3:47 PM 87.8 °F 89.4 °F 64.4 °F 46% 29.97 in 10.0 mi Calm Calm - N/A   Clear
4:47 PM 87.8 °F 89.4 °F 64.4 °F 46% 29.96 in 10.0 mi NE 3.5 mph - N/A   Clear
5:47 PM 86.0 °F 88.2 °F 66.2 °F 51% 29.96 in 10.0 mi ENE 3.5 mph - N/A   Clear
6:47 PM 84.2 °F 86.6 °F 66.2 °F 55% 29.95 in 10.0 mi East 3.5 mph - N/A   Clear
7:47 PM 82.4 °F 85.4 °F 68.0 °F 62% 29.96 in 10.0 mi SE 4.6 mph - N/A   Clear
8:47 PM 80.6 °F 83.2 °F 68.0 °F 65% 29.96 in 10.0 mi SSE 3.5 mph - N/A   Clear
9:25 PM 78.8 °F - 68.0 °F 69% 29.97 in 10.0 mi Calm Calm - N/A   Clear
9:45 PM 77.0 °F - 68.0 °F 74% 29.97 in 10.0 mi Calm Calm - N/A   Clear
10:05 PM 77.0 °F - 68.0 °F 74% 29.97 in 10.0 mi Calm Calm - N/A   Clear
10:25 PM 77.0 °F - 68.0 °F 74% 29.97 in 10.0 mi SE 3.5 mph - N/A   Clear
10:45 PM 75.2 °F - 68.0 °F 78% 29.97 in 10.0 mi SE 3.5 mph - N/A   Clear
11:05 PM 75.2 °F - 68.0 °F 78% 29.97 in 10.0 mi Calm Calm - N/A   Clear
11:25 PM 75.2 °F - 68.0 °F 78% 29.98 in 10.0 mi Calm Calm - N/A   Clear
11:45 PM 73.4 °F - 68.0 °F 83% 29.97 in 10.0 mi SE 3.5 mph - N/A   Clear